Weather Service Report


695 
ASUS41 KPHI 292012
RWRPHI

REGIONAL WEATHER ROUNDUP
NATIONAL WEATHER SERVICE MOUNT HOLLY NJ
400 PM EDT WED JUL 29 2015

NOTE:  "FAIR" INDICATES FEW OR NO CLOUDS BELOW 12,000 FEET WITH NO
SIGNIFICANT WEATHER AND/OR OBSTRUCTIONS TO VISIBILITY.

 * = STATION DOES NOT REPORT PRECIPITATION (E.G. RAIN, SNOW, ETC.) 
        OR FOG.

NJZ015>026-292100-
SOUTHERN NEW JERSEY
  
CITY           SKY/WX    TMP DP  RH WIND       PRES   REMARKS
POMONA         MOSUNNY   88  73  61 S12G20    29.97F HX  95           
RIO GRANDE*    PTSUNNY   86  72  62 SW12      30.01R HX  92           
MILLVILLE      PTSUNNY   84  71  65 VRB5      29.99F                  
WRIGHTSTOWN    MOSUNNY   92  70  47 W9        29.92F HX  97           
MOUNT HOLLY    SUNNY     92  69  47 CALM      29.94F HX  97           
TRENTON        MOSUNNY   91  65  41 SW8       29.94F HX  93           

$$
NJZ001>014-292100-
NORTHERN NEW JERSEY
  
CITY           SKY/WX    TMP DP  RH WIND       PRES   REMARKS
SUSSEX         MOSUNNY   91  63  39 W5        29.96F HX  92           
ANDOVER*         N/A     90  67  46 VRB5      29.96F HX  93           
MORRISTOWN     PTSUNNY   95  63  34 NW12      29.93F HX  96           
NEWARK         PTSUNNY   95  62  33 S8        29.92F HX  96           
TETERBORO      PTSUNNY   94  60  32 S9        29.90F HX  94           
CALDWELL       MOSUNNY   94  62  34 W7        29.92F HX  94           
SOMERVILLE     MOSUNNY   94  63  35 VRB7      29.91F HX  95           
ALLAIRE*       MOSUNNY   90  70  51 S9        29.95F HX  95           
TOMS RIVER*      N/A     93  68  43 S7        29.95F HX  97           

$$
PAZ043-044-047-054-055-060>062-066>071-292100-
EASTERN PENNSYLVANIA
  
CITY           SKY/WX    TMP DP  RH WIND       PRES   REMARKS
PHILADELPHIA   PTSUNNY   93  68  43 SW10      29.95F HX  97           
NORTH PHILA    MOSUNNY   93  62  35 VRB7      29.95F HX  93           
BLUE BELL      SUNNY     91  66  43 SW3       29.95F HX  94           
DOYLESTOWN     MOSUNNY   88  65  46 VRB5      29.95F HX  90           
QUAKERTOWN*    SUNNY     91  66  43 W6        29.97F HX  94           
POTTSTOWN      SUNNY     89  67  47 SW7       29.97F HX  92           
LANCASTER      MOSUNNY   87  70  56 S6        29.96F HX  92           
COATESVILLE    MOSUNNY   86  75  70 S5        29.99F HX  95           
READING        MOSUNNY   92  65  40 VRB7      29.95F HX  94           
ALLENTOWN      MOSUNNY   91  67  44 SW5       29.95F HX  94           
MOUNT POCONO     N/A    N/A N/A N/A MISG      30.04F                  
HAZLETON       MOSUNNY   84  64  51 S7        30.05F                  
WILKES BARRE   PTSUNNY   91  63  39 SW9G20    29.97F HX  92           

$$
DEZALL-MDZ008-012-015-019-020-292100-
DELAWARE AND EASTERN MARYLAND
  
CITY           SKY/WX    TMP DP  RH WIND       PRES   REMARKS
WILMINGTON     PTSUNNY   86  75  69 S13       29.97F HX  95           
DOVER          MOSUNNY   82  76  83 SE8       29.97S                  
GEORGETOWN     CLOUDY    83  75  77 SE7       29.99F HX  90           
EASTON         PTSUNNY   88  73  62 SW7       30.02  HX  96           
ABERDEEN       PTSUNNY   86  72  62 W16       29.98S HX  92           
PATUXENT       PTSUNNY   85  74  69 S3        29.98F HX  92           
OCEAN CITY     PTSUNNY   85  73  67 S8        30.00S HX  91           
WALLOPS ISLAND PTSUNNY   86  71  60 S12       30.01S HX  91           
CAMBRIDGE      MOSUNNY   86  68  54 SW7       29.99S                  
SALISBURY      PTSUNNY   86  74  67 SW8       29.99S HX  94           

$$
PAZ001-021-NYZ056-072-MDZ011-DCZ001-292100-
OTHER NEARBY LOCATIONS
  
CITY           SKY/WX    TMP DP  RH WIND       PRES   REMARKS
HARRISBURG     PTSUNNY   90  72  55 S3        29.94F HX  97           
STATE COLLEGE  MOSUNNY   84  68  58 S6        29.99F                  
WILLIAMSPORT   MOSUNNY   89  67  47 VRB5      29.94F HX  92           
BINGHAMTON     MOSUNNY   84  63  49 S6        30.00F                  
NEW YORK CITY  MOSUNNY   93  63  36 CALM      29.95F HX  94           
BALTIMORE      CLOUDY    81  77  88 NE7       29.97F                  
WASHINGTON DC  PTSUNNY   92  75  57 S13G21    29.97S HX 103           

$$

Return to Home page


Western Regional Climate Center, wrcc@dri.edu